Theta_e
306 305 304 303 302 302 301 300 300 300 299 298 297 297 297 297 296 296 296 296 295 295 294 294 293 293 293 292 292 293 293 293 293 293 293 293 293 292 292 292 292 291 290 290 289 289 289 289 289 289 289 289 288 287 288 288 288 288 287 288 287 286 287 288 289 288 286 286 288 288 288 290 290 291 291 292 293 294 295 296 297 298 298 299 299
305 304 303 303 301 301 300 299 299 298 298 297 297 297 297 297 296 296 296 295 295 295 295 294 294 294 293 293 293 293 293 292 292 292 292 293 292 292 292 292 291 290 290 290 289 288 288 288 288 288 288 288 288 288 287 288 288 288 288 286 287 286 285 287 288 287 285 284 282 283 286 289 290 291 292 293 294 295 296 297 298 298 298 298 299
303 302 303 301 301 300 299 298 298 299 298 297 297 297 296 296 296 296 295 295 295 295 295 294 295 295 294 294 294 293 294 294 293 293 293 292 292 291 291 291 291 290 290 289 288 288 288 287 287 287 288 287 286 286 287 287 287 287 287 286 285 286 286 288 288 288 283 284 284 283 282 281 287 289 293 293 293 292 293 292 292 292 293 294 295
301 301 301 300 300 299 298 298 298 298 298 296 296 296 296 296 296 296 295 295 295 294 295 295 296 296 295 295 294 294 292 292 292 292 292 291 291 291 291 291 290 289 289 289 288 288 288 287 287 287 287 287 287 286 286 286 287 287 286 286 285 283 284 285 287 286 285 283 280 281 280 282 280 285 284 286 289 288 289 290 292 293 294 295 295
302 302 301 300 299 298 298 298 298 297 297 296 296 295 295 295 296 296 295 294 295 295 295 295 294 293 293 292 292 291 290 290 290 289 290 290 290 290 290 291 290 289 289 288 288 287 287 287 287 286 286 286 286 285 285 286 286 286 286 285 285 283 282 284 285 286 285 286 283 280 280 280 280 281 282 282 287 287 288 289 289 290 290 291 292
304 303 301 300 299 299 298 298 297 297 297 297 296 296 296 296 295 295 295 295 294 294 295 294 292 291 290 289 288 288 287 288 287 288 289 289 289 290 290 290 290 289 288 288 288 287 287 287 286 286 286 286 286 286 285 285 285 285 286 285 284 284 283 282 282 285 285 285 285 284 282 279 278 281 280 278 284 285 286 288 289 290 290 290 291
304 304 303 300 299 299 298 298 297 296 297 298 297 296 296 296 295 295 295 294 295 294 294 293 292 291 290 290 290 289 288 290 290 291 291 291 291 290 290 289 289 288 288 288 287 287 287 286 286 286 285 285 286 285 284 285 285 285 286 285 284 284 283 281 281 282 284 284 285 285 284 284 284 280 278 279 277 282 285 285 286 288 288 289 289
304 303 303 301 299 298 298 298 297 297 297 297 296 296 295 295 295 295 295 294 294 294 293 293 291 291 291 291 291 290 290 290 291 291 291 290 289 288 288 288 288 288 287 287 287 286 286 286 286 285 285 285 285 284 284 284 285 285 285 285 284 284 283 281 281 282 280 281 284 283 283 284 284 284 283 280 278 277 279 284 286 286 287 288 289
304 304 302 301 299 299 299 298 298 298 297 297 296 296 296 295 295 295 294 294 294 294 293 292 292 291 291 291 290 291 292 292 291 290 289 288 287 288 287 287 287 287 287 287 286 286 285 285 285 284 284 284 284 284 284 284 284 284 283 283 283 283 283 283 282 281 281 281 281 281 282 282 282 283 283 283 279 278 278 280 281 285 285 286 286
304 304 303 302 301 300 300 300 298 297 297 298 297 296 296 295 294 294 293 293 293 293 292 292 292 291 291 291 290 290 290 290 289 288 287 288 287 287 287 287 286 286 286 286 286 285 285 285 284 284 284 284 284 284 284 284 284 283 283 283 283 282 283 282 282 282 282 282 281 281 280 280 280 280 280 280 280 281 277 278 280 280 279 282 286
304 304 303 303 302 301 300 299 298 297 297 297 296 295 295 295 294 293 293 293 293 292 292 292 291 291 290 290 290 290 289 289 287 287 287 287 286 286 286 286 286 286 286 285 285 285 285 284 284 284 284 284 283 283 283 283 283 283 283 283 282 282 281 282 282 282 281 281 281 281 280 280 279 278 279 280 280 278 278 278 280 281 280 280 283
304 303 302 302 301 300 299 298 298 297 296 295 296 295 294 294 294 293 293 292 292 292 292 291 291 290 290 290 290 290 289 288 287 287 286 286 286 285 286 286 285 286 285 284 284 284 284 284 284 283 283 283 283 283 283 283 283 283 282 282 281 282 282 281 281 280 281 281 281 281 280 281 280 279 280 280 279 278 278 277 278 279 280 280 282
303 302 302 301 300 299 298 298 297 296 295 295 295 295 294 294 294 292 292 292 292 291 291 291 290 290 289 289 289 289 289 288 287 287 287 286 286 285 285 284 284 284 284 284 284 284 284 283 283 283 283 283 283 283 283 283 282 282 282 281 281 281 281 281 280 280 280 279 279 281 281 280 280 281 281 280 280 280 278 276 278 279 276 277 280
302 302 302 301 300 299 298 298 297 296 295 295 294 294 294 294 293 292 292 292 291 291 290 290 290 290 289 289 289 288 288 288 287 286 286 286 286 285 284 284 284 284 284 283 284 284 283 283 282 282 282 282 282 282 282 282 282 281 281 280 280 281 281 281 280 280 280 280 280 279 279 279 280 280 280 280 279 278 277 276 276 277 277 276 278
302 302 301 301 300 299 298 298 297 296 295 295 294 294 294 293 293 292 291 291 291 290 290 289 289 289 289 289 288 288 287 287 286 286 286 285 285 284 284 284 283 283 283 283 283 283 282 282 282 281 281 281 282 281 282 281 281 281 280 280 280 280 280 280 279 279 279 279 279 279 279 279 279 279 279 279 279 278 278 277 276 273 274 276 275
301 301 301 301 301 300 299 298 297 297 295 295 294 294 293 293 293 292 291 291 291 290 289 289 289 289 288 288 287 287 286 286 286 285 285 285 284 283 283 283 283 282 282 282 282 282 281 281 281 281 281 281 281 281 280 280 280 279 279 279 279 280 279 279 279 279 278 279 278 279 278 278 279 279 279 279 279 279 278 278 277 275 273 271 274
301 301 301 301 300 300 299 298 297 296 295 294 294 294 293 293 292 292 291 291 290 290 289 289 289 288 287 287 286 286 285 284 284 284 283 284 283 283 282 282 282 281 281 281 281 281 281 280 280 280 280 280 280 280 280 279 279 279 278 278 278 279 278 278 278 278 278 278 278 278 278 278 278 279 279 279 279 279 278 278 278 276 275 272 271
302 302 302 301 300 299 299 298 298 296 295 294 294 294 294 293 292 291 291 290 290 289 288 288 287 287 286 286 285 285 284 284 284 283 283 282 282 281 281 280 280 281 280 281 280 280 280 280 279 279 279 279 279 279 279 279 278 278 278 278 278 278 277 278 278 278 277 277 277 277 278 277 278 278 278 278 278 278 278 279 279 278 277 273 272
302 301 301 300 300 299 299 298 298 297 296 295 295 294 294 293 293 292 291 291 289 289 288 288 287 286 286 285 284 284 283 283 283 283 282 281 280 280 280 280 280 280 280 280 279 279 279 279 279 278 278 278 278 278 278 278 278 277 277 277 277 277 276 276 277 277 277 277 276 276 277 276 277 277 277 277 278 277 277 277 276 276 276 275 273
304 302 302 301 300 299 298 297 296 296 295 295 294 294 293 293 292 291 291 290 289 288 287 286 286 285 284 284 284 283 282 282 282 281 280 280 280 280 280 280 280 280 279 279 279 279 278 278 278 278 277 277 277 277 277 277 276 276 276 276 276 276 275 275 275 276 276 276 275 275 275 275 276 276 276 276 276 277 276 276 275 275 274 274 274
305 304 302 301 300 298 297 297 296 296 295 294 293 292 292 292 291 291 290 288 287 287 286 286 285 284 284 283 282 282 281 281 280 280 280 279 279 279 279 279 279 279 279 279 278 278 278 277 277 277 276 276 276 276 276 276 275 275 275 275 275 275 274 274 274 274 275 275 274 274 274 275 275 275 275 275 275 275 275 275 274 274 273 274 273
306 305 303 302 299 298 296 295 295 294 293 292 292 292 291 291 290 290 289 288 287 286 286 285 284 284 283 282 281 281 280 280 279 279 279 279 279 279 279 279 278 278 278 278 277 277 277 277 276 275 275 275 275 275 275 275 274 274 274 274 274 274 273 273 273 273 273 274 274 273 273 274 275 275 274 274 274 274 274 273 273 273 273 273 274
306 305 303 302 299 297 294 293 292 292 292 291 291 291 290 290 290 289 288 287 287 286 285 284 283 282 282 281 281 280 279 279 278 278 278 278 278 278 278 277 277 277 278 277 277 276 276 275 275 275 274 274 274 274 274 274 274 273 273 273 273 273 273 272 272 272 272 273 273 273 273 273 274 273 273 273 273 273 273 273 273 273 273 273 273
305 303 301 299 297 295 293 291 291 291 290 290 290 290 290 290 289 289 288 287 286 285 284 283 282 281 281 280 279 279 278 278 277 278 277 278 278 278 278 277 277 277 276 277 276 276 275 274 274 274 274 273 273 274 273 273 273 273 272 272 273 273 272 272 272 272 272 272 272 272 272 273 273 272 272 272 272 272 272 272 272 273 273 272 273
301 300 299 296 293 292 292 292 291 290 290 290 290 289 289 289 289 288 288 287 285 285 283 282 281 280 280 279 278 278 277 277 277 277 277 277 277 277 277 276 276 276 276 275 275 275 274 273 273 273 273 273 273 273 273 273 273 273 273 272 272 272 272 272 272 272 273 272 272 272 272 273 273 271 271 271 271 271 272 272 272 272 272 273 273
301 300 297 295 293 292 291 291 291 290 289 289 289 289 288 288 288 288 287 285 284 283 282 281 280 279 278 278 277 277 276 276 276 277 276 276 276 276 276 276 275 275 274 274 273 273 273 273 273 273 273 273 273 273 272 272 272 272 272 272 272 272 272 272 272 272 272 272 272 273 273 272 271 270 270 271 271 271 271 271 272 272 272 273 273
300 299 299 296 294 292 291 290 291 290 289 288 288 288 288 287 287 287 286 284 283 282 281 280 279 278 277 277 276 276 276 276 276 276 276 276 275 275 275 274 275 274 273 273 273 272 273 272 272 272 272 272 272 272 272 272 272 272 272 272 272 272 272 272 272 273 273 272 272 272 272 272 271 271 270 271 271 271 272 271 272 272 272 272 272
300 298 297 295 294 293 291 290 289 289 289 288 288 288 287 287 286 286 284 283 282 281 280 279 278 277 277 276 276 276 276 276 276 276 275 275 275 275 274 274 273 272 272 272 272 271 272 272 272 271 272 272 272 272 272 272 272 272 272 272 271 271 272 272 272 273 273 273 273 273 272 273 272 272 272 272 272 271 272 272 272 272 272 272 272
298 297 296 295 295 294 292 290 289 289 288 287 287 287 286 286 286 285 283 281 281 279 278 278 277 277 276 276 276 276 276 276 275 275 274 274 274 273 273 273 272 271 271 271 271 271 270 270 271 271 271 272 272 272 272 272 271 271 272 272 272 273 273 273 273 273 273 273 273 273 273 273 274 275 277 276 276 276 273 271 272 273 272 272 272
296 296 296 296 296 295 294 291 289 288 287 286 286 286 285 285 284 282 281 280 280 279 278 277 277 276 276 276 276 275 275 275 274 274 274 273 273 272 272 271 270 270 270 270 270 270 270 270 270 271 271 272 271 272 273 274 274 273 273 273 273 273 273 273 273 273 273 274 274 274 275 277 277 278 278 278 279 279 279 276 274 274 273 272 272
298 298 297 297 296 295 294 292 290 288 287 286 286 285 285 284 283 281 280 279 279 278 277 277 276 276 276 275 275 274 274 273 273 273 273 272 271 271 270 270 269 269 269 269 269 269 270 270 271 271 271 271 271 271 273 275 275 277 275 274 273 273 274 274 274 274 273 274 274 275 275 276 277 277 276 278 279 280 280 280 280 280 278 275 273
298 298 299 297 296 295 294 292 290 289 287 286 285 285 284 283 282 280 279 279 278 277 277 276 276 276 275 274 274 274 273 273 273 272 271 270 270 269 268 268 268 268 268 269 269 269 270 270 270 270 270 270 270 272 274 275 276 276 276 275 274 274 274 274 274 274 274 274 274 274 274 275 275 275 275 275 276 278 279 279 280 280 280 280 281
298 298 298 298 297 295 295 294 292 289 288 286 285 284 283 282 280 280 278 278 277 277 276 276 275 275 274 274 274 273 272 271 271 270 269 268 267 267 267 267 266 267 268 268 268 269 269 270 270 269 269 270 270 272 273 274 275 276 277 276 275 274 274 274 274 274 273 273 273 273 273 274 274 276 275 274 274 274 277 278 279 279 280 280 281
299 299 299 299 299 297 295 294 292 290 289 287 286 284 283 282 280 279 277 277 276 276 276 275 274 274 273 273 273 271 271 270 269 268 267 266 266 266 266 267 267 267 267 267 268 268 268 268 269 269 268 269 269 271 273 274 276 276 277 277 275 274 274 274 273 273 273 273 273 273 273 273 274 274 274 274 274 274 274 274 274 275 275 276 279
298 298 299 299 299 297 294 292 291 290 287 286 284 283 282 279 278 277 277 276 276 275 275 274 273 273 272 272 271 270 269 268 267 267 266 265 265 265 266 266 266 267 267 267 267 267 267 267 267 267 267 267 268 271 273 275 275 276 277 277 274 274 273 273 273 274 274 273 273 273 273 273 274 274 274 275 274 274 274 274 274 274 275 275 276
298 298 298 299 297 295 293 291 290 288 285 284 283 282 279 277 277 276 276 276 275 274 273 273 272 271 271 271 269 269 268 267 266 265 265 265 265 265 265 266 266 267 267 267 267 267 266 266 266 266 266 266 267 271 273 274 275 276 277 274 273 273 273 273 273 273 274 274 274 274 274 274 274 274 276 278 278 276 275 274 274 274 275 275 276
299 299 299 299 297 295 293 290 287 286 284 283 282 280 278 276 276 275 275 275 274 273 272 272 271 270 270 269 269 267 266 266 265 265 264 264 265 265 265 266 265 266 266 266 266 266 266 266 265 265 265 265 266 269 272 274 275 276 275 273 273 272 272 272 273 273 274 274 274 274 274 274 274 274 277 279 279 279 275 274 274 274 275 275 275
299 299 297 295 294 293 291 289 286 285 284 282 280 279 277 276 275 274 274 273 273 272 271 271 270 269 269 268 268 267 266 265 265 264 264 265 265 265 265 266 265 265 265 266 266 265 265 266 265 265 265 265 266 269 272 274 275 275 275 273 272 272 272 272 272 273 274 274 275 277 276 274 273 273 277 279 279 278 275 275 274 274 274 274 275
297 297 295 293 290 290 289 288 286 284 283 281 280 278 277 275 274 273 273 271 271 271 270 270 269 268 268 267 266 266 266 265 264 264 264 264 265 265 265 265 265 265 264 265 265 265 265 265 265 265 267 267 267 269 272 273 274 275 274 273 272 272 271 272 272 272 274 274 274 275 276 275 275 275 278 279 279 278 275 274 274 274 274 274 275
295 295 295 293 289 287 286 285 284 284 282 280 279 277 276 274 273 272 271 271 271 271 271 270 269 268 267 266 266 265 265 264 264 264 264 264 264 264 264 264 264 264 264 265 265 265 264 264 265 266 266 267 267 268 270 273 274 275 275 273 273 271 271 271 272 272 272 272 273 272 273 276 277 277 278 278 279 279 276 275 275 274 273 273 276
294 293 290 289 287 287 286 286 285 283 280 279 278 277 275 273 272 271 271 272 272 271 269 268 267 266 265 265 265 265 264 264 264 263 263 263 264 264 264 263 262 263 264 264 263 263 263 264 266 267 267 267 268 269 270 273 274 274 275 275 272 272 272 272 272 272 272 271 271 271 271 274 276 277 278 278 279 280 280 277 276 275 275 276 278
286 288 287 287 286 286 286 285 283 280 279 278 277 276 275 273 272 271 272 271 270 269 268 267 266 265 264 263 263 263 263 263 262 262 262 262 264 264 263 262 263 263 262 261 262 263 264 265 266 267 267 268 269 271 270 271 273 274 275 276 273 273 274 273 271 271 271 270 270 270 270 273 276 277 278 279 279 279 279 277 276 280 281 281 279
287 285 285 285 284 283 284 283 281 279 278 278 277 276 274 273 271 272 271 270 269 268 267 266 264 263 263 262 262 261 261 261 261 262 262 262 262 261 261 261 262 262 261 261 262 264 264 265 265 267 268 268 269 269 271 270 272 274 275 276 276 275 276 274 271 270 270 270 270 270 271 274 276 277 278 278 278 279 277 275 279 280 281 282 281
285 284 283 284 284 282 281 280 277 277 277 277 276 275 274 271 272 272 270 269 267 266 265 263 262 262 261 261 261 260 260 260 260 261 261 262 261 261 261 261 262 262 263 263 264 264 264 264 265 266 267 268 268 269 270 271 271 274 275 276 276 276 276 273 272 270 270 270 269 270 272 276 276 276 277 277 277 276 274 277 278 279 280 282 280
286 285 283 282 283 282 280 277 276 275 275 275 277 275 273 272 272 270 269 267 265 264 263 262 261 260 260 259 259 259 260 260 260 261 260 261 261 261 261 262 262 263 264 263 264 264 264 265 265 265 266 267 267 268 268 270 272 273 274 275 275 276 275 275 271 270 270 270 273 275 275 275 275 275 275 275 274 274 275 276 277 277 277 279 279
285 283 281 281 282 282 279 276 274 273 273 274 275 276 272 272 270 268 267 265 263 262 261 260 260 259 259 259 259 259 260 260 260 261 261 262 261 261 263 263 263 263 263 263 263 264 265 265 265 265 265 266 267 267 267 268 270 272 273 274 274 274 274 274 273 270 273 274 274 274 273 273 273 272 270 270 270 270 274 275 275 275 272 276 279
285 284 281 279 279 279 277 275 272 272 272 273 274 275 273 270 267 267 265 263 262 261 260 259 259 259 259 259 259 259 259 259 260 261 261 262 262 263 263 263 263 263 263 263 264 264 265 265 264 265 265 265 266 266 267 268 270 271 271 271 271 271 272 272 270 269 271 269 269 269 269 272 272 273 272 272 272 271 270 270 270 270 271 272 274
286 286 281 280 279 279 277 274 272 271 271 271 272 273 271 267 266 265 263 262 261 261 260 259 259 259 258 259 259 260 259 259 259 260 261 262 262 263 263 263 264 263 263 263 264 264 264 264 264 264 265 265 265 266 267 268 270 270 270 271 270 270 269 269 268 269 269 267 266 269 268 267 267 267 267 268 268 268 268 268 269 269 270 271 273
286 283 279 279 278 278 277 274 272 271 270 271 271 271 268 266 265 263 261 261 261 260 259 259 259 259 259 260 260 259 260 260 260 261 262 263 262 262 264 264 265 265 265 264 264 265 265 265 265 265 264 264 265 265 267 272 271 273 271 270 269 269 269 269 270 273 267 266 265 265 265 265 265 265 265 266 266 266 267 267 268 268 269 269 270
287 283 279 278 278 278 276 273 272 270 270 270 270 268 266 265 263 262 261 261 260 259 259 258 259 259 259 260 259 260 261 261 260 260 261 261 263 266 265 264 264 266 268 269 268 266 266 266 265 266 266 265 265 267 272 273 273 273 273 273 273 273 272 270 272 271 267 263 263 263 263 263 263 264 264 264 265 265 265 266 266 269 268 268 269
285 280 278 277 277 276 275 273 271 269 269 269 269 266 264 263 262 261 262 261 260 259 259 259 259 259 259 259 259 260 260 261 261 261 261 260 261 264 267 267 267 267 267 268 268 268 269 268 267 266 267 269 270 271 272 272 272 272 273 273 272 272 271 271 272 266 263 262 262 262 262 263 263 263 264 264 264 265 265 265 266 266 267 267 268
Wind_Speed
10 13 14 16 15 14 13 13 14 15 15 16 16 16 16 14 14 14 12 12 10 10 9 9 9 7 7 7 7 7 6 6 5 5 4 4 5 4 4 4 3 3 2 2 2 3 4 4 5 5 5 5 6 7 7 8 7 7 7 6 8 9 8 7 8 8 11 11 9 12 13 13 14 14 14 13 11 9 8 8 8 8 8 8 8
10 11 13 14 13 14 13 12 14 17 16 16 17 17 16 16 15 13 12 12 12 11 10 9 8 8 8 8 7 7 7 7 6 5 5 4 5 5 4 4 4 3 2 3 3 3 4 4 5 5 5 5 6 8 9 9 8 7 6 7 6 7 8 7 7 8 7 9 14 14 9 7 9 10 11 10 8 7 7 7 7 8 9 9 8
11 12 13 13 15 15 13 13 14 16 17 18 17 17 17 15 14 13 12 12 11 11 10 9 8 8 7 7 7 6 5 5 4 4 5 5 5 5 5 4 4 3 3 3 3 4 4 5 5 5 5 5 6 7 8 8 6 7 6 6 7 6 8 6 5 4 8 9 10 12 12 16 4 5 4 5 7 8 9 11 12 12 13 12 10
13 14 14 14 15 15 14 14 14 14 15 16 17 18 15 14 14 14 13 12 11 11 10 9 9 8 6 6 5 4 5 5 3 3 4 5 5 5 5 4 4 4 4 4 4 4 5 5 5 5 5 5 6 7 8 7 6 5 5 6 7 8 6 6 5 5 5 8 9 6 12 9 15 5 11 10 7 13 10 10 8 8 10 10 9
11 12 14 15 16 17 17 15 14 16 16 16 16 16 12 16 15 15 13 13 11 12 12 10 9 8 7 6 5 3 2 3 4 5 6 6 5 6 6 5 5 4 4 5 4 5 5 5 5 5 5 6 6 7 7 7 6 6 6 6 6 7 9 7 6 6 6 4 4 8 7 6 7 13 17 18 4 4 7 10 12 13 13 11 10
12 13 15 16 16 15 15 15 16 15 16 15 15 15 15 15 16 15 12 12 12 13 13 11 10 10 9 8 7 7 7 7 8 8 7 7 7 5 5 5 5 5 5 5 5 5 5 5 5 5 6 6 6 7 7 7 7 6 5 6 7 7 8 8 8 5 5 5 6 7 7 8 13 14 10 13 20 8 8 7 7 9 8 10 11
10 10 12 15 15 15 16 17 17 17 15 14 14 15 16 15 16 16 13 12 12 13 14 11 10 9 11 10 9 8 8 7 6 6 6 5 5 5 4 5 5 5 5 5 5 6 5 5 5 5 6 7 7 7 7 7 6 6 5 6 6 7 7 8 8 7 6 6 7 8 10 10 10 10 10 13 16 18 7 5 9 8 11 12 12
10 12 13 14 15 16 18 17 16 16 15 14 14 15 17 17 17 16 12 12 12 12 15 11 11 11 11 10 9 8 8 7 8 6 4 4 4 4 4 4 5 5 5 6 6 6 5 5 5 6 6 7 7 7 7 7 6 6 6 7 7 7 7 8 8 6 6 7 5 7 8 10 11 12 13 10 12 15 24 13 7 7 10 11 11
12 11 13 15 16 15 14 15 15 15 15 15 15 15 14 15 16 16 14 13 13 15 14 13 11 11 10 9 9 7 6 5 5 5 5 4 4 4 4 4 4 5 6 6 6 6 5 5 6 6 7 7 7 7 8 7 8 8 7 7 7 8 7 8 8 8 7 8 7 8 8 9 9 10 10 10 10 11 18 18 22 12 10 13 13
10 10 11 13 13 13 13 12 14 14 14 13 13 14 14 14 16 18 17 13 13 15 14 14 13 11 11 10 10 8 7 6 5 6 5 5 5 5 5 5 5 5 6 7 7 7 6 6 6 7 7 8 7 8 8 8 8 8 8 8 8 9 8 8 9 8 7 8 8 8 8 8 8 8 9 9 12 13 15 18 18 21 22 13 7
8 9 10 11 11 12 13 14 14 14 12 14 13 14 14 15 17 18 17 13 14 15 16 15 13 12 11 11 11 10 10 8 7 6 6 6 5 6 5 5 5 5 5 5 6 6 6 6 6 7 7 7 7 8 8 8 7 7 7 8 9 10 9 9 10 10 9 9 9 8 9 9 9 9 9 9 11 11 12 16 17 17 20 24 12
8 8 9 10 11 11 12 14 14 15 14 14 13 14 15 15 16 18 17 16 14 15 15 14 13 12 11 11 12 10 10 8 9 8 8 7 7 6 5 4 5 4 4 5 5 6 5 5 5 6 7 7 8 7 7 7 7 7 7 7 8 9 9 9 9 10 10 9 10 9 10 10 10 11 10 10 11 12 13 16 16 15 18 18 15
8 8 9 10 11 12 13 14 14 15 15 16 15 14 14 15 17 19 19 17 15 16 16 15 14 13 12 11 11 9 10 9 8 8 7 7 6 6 5 5 4 4 5 5 5 5 4 5 5 6 6 6 6 7 7 8 7 7 7 8 9 10 9 9 9 10 10 10 9 9 10 10 11 10 11 11 12 12 13 15 16 14 18 19 17
7 7 8 9 10 11 12 13 14 13 14 15 15 15 14 13 17 19 18 17 15 16 16 16 15 13 12 11 10 9 10 9 8 7 7 6 5 6 6 5 5 5 5 5 4 4 4 5 5 6 7 7 8 8 8 8 8 7 8 9 9 9 9 10 10 11 11 12 11 11 11 11 12 11 12 12 12 12 13 15 15 13 15 19 16
7 8 9 10 11 12 12 13 13 13 14 15 14 14 14 14 17 19 18 18 17 17 15 16 14 14 13 11 11 9 9 8 7 7 7 7 6 6 5 5 5 5 5 4 4 4 5 5 6 7 7 7 8 8 8 8 8 8 8 9 9 8 9 9 10 11 11 12 13 12 12 12 12 11 11 12 12 13 13 13 13 16 16 15 17
8 8 9 10 10 11 10 11 12 12 14 13 15 14 15 16 18 19 20 18 17 17 15 16 14 13 13 13 12 10 8 8 7 7 6 7 6 6 6 6 5 5 5 4 4 4 5 6 7 7 8 8 8 9 9 8 8 8 8 8 9 7 8 10 10 11 13 14 14 13 13 14 12 12 12 13 13 13 13 13 15 16 18 19 17
8 9 8 9 9 10 10 11 11 12 13 15 16 16 18 16 17 19 19 16 17 17 15 15 14 14 14 13 12 11 10 10 9 9 8 7 6 6 5 6 5 5 5 4 5 5 5 6 7 7 8 8 9 9 9 8 8 8 8 9 9 9 9 10 10 11 12 12 12 14 13 13 12 12 12 12 13 13 13 14 14 17 17 19 17
9 9 8 10 11 12 12 11 12 13 14 14 16 14 14 15 17 18 18 19 17 17 16 15 15 14 14 14 13 12 10 10 9 9 8 7 6 6 6 6 6 6 5 4 5 5 6 7 7 8 8 8 9 8 8 8 8 8 8 9 9 9 10 10 10 11 12 11 13 13 12 13 12 12 13 13 13 14 14 15 17 17 16 20 18
9 9 9 9 10 12 12 12 12 12 12 13 12 13 12 13 15 17 19 17 17 14 14 12 13 10 10 12 13 11 10 9 8 8 8 8 8 7 7 7 6 6 6 6 6 6 7 7 7 8 8 8 8 8 8 7 8 8 8 8 9 9 10 11 11 11 11 11 13 14 13 13 13 14 14 13 14 14 15 16 16 16 18 20 18
8 9 9 10 11 11 12 12 13 14 13 12 13 11 14 14 15 15 14 14 15 15 15 14 13 11 11 11 11 11 10 10 9 9 9 8 8 8 8 8 7 6 6 6 6 7 7 7 7 7 8 8 8 8 7 7 7 8 8 8 9 10 11 12 12 11 10 12 13 15 14 13 13 13 13 13 14 16 17 16 16 16 17 17 16
8 8 9 10 9 9 10 9 9 9 8 9 11 13 13 12 14 16 16 16 15 14 14 13 12 12 14 14 13 12 12 10 10 10 9 9 8 8 8 7 6 6 6 6 7 8 8 8 8 8 8 8 8 8 7 7 7 8 8 9 10 11 12 12 12 13 12 13 14 15 15 15 15 15 13 13 15 17 16 16 16 16 16 16 17
9 9 7 7 9 9 8 8 8 9 10 11 10 10 13 14 14 15 13 13 15 14 14 13 12 12 14 13 13 11 11 10 11 10 10 9 8 8 8 7 7 7 6 7 7 7 7 7 7 8 9 8 8 8 8 7 8 9 10 8 9 11 12 13 12 13 13 12 13 15 16 16 15 15 15 16 16 17 16 17 17 17 16 16 17
10 9 9 9 7 8 10 11 11 12 11 11 11 12 12 13 14 14 13 14 13 13 13 12 12 13 14 13 12 12 11 12 12 10 10 9 9 8 8 8 7 6 6 7 7 7 7 7 8 9 8 8 8 8 7 7 8 9 10 10 10 11 12 13 13 14 14 13 14 14 16 15 12 13 15 17 17 18 17 18 19 17 18 18 18
8 8 8 8 8 8 8 9 10 11 12 13 11 10 11 12 13 13 15 15 14 13 13 13 12 13 14 13 13 12 12 12 11 9 11 10 9 8 8 8 7 6 6 6 7 7 7 8 8 9 8 8 8 8 7 8 9 10 11 12 12 12 12 13 14 14 14 13 14 15 15 14 14 17 17 16 16 17 17 17 18 18 19 20 19
10 10 9 7 8 9 10 10 10 10 10 11 11 12 13 13 13 14 14 14 13 12 13 13 14 15 14 13 13 13 12 12 11 9 11 10 9 8 7 7 7 7 7 6 6 6 7 8 8 8 8 8 7 8 8 9 9 10 11 12 12 12 12 13 14 14 14 14 15 15 16 16 18 19 17 17 17 19 18 18 19 18 18 18 17
13 12 9 11 12 8 6 9 9 9 10 11 11 11 12 12 14 12 13 13 13 12 13 14 14 14 14 14 14 13 13 13 12 10 11 10 9 8 7 7 7 7 6 6 6 6 6 7 7 7 7 7 7 8 8 9 10 11 11 11 12 12 13 13 13 14 13 13 14 18 19 19 19 19 19 17 19 21 20 19 22 19 19 18 19
15 14 12 9 7 9 12 9 9 9 11 11 12 12 12 13 13 13 13 13 13 13 14 14 14 14 13 14 13 12 12 11 11 9 9 8 8 8 7 7 6 6 6 6 6 7 7 7 7 7 7 7 8 8 9 10 10 11 11 12 12 12 12 12 12 15 16 17 18 18 19 19 21 21 20 20 20 22 18 23 20 22 19 19 19
11 9 9 11 13 13 12 11 10 11 11 10 11 11 12 13 14 14 13 13 11 14 14 14 14 13 13 13 12 12 11 11 10 9 9 8 7 7 7 6 6 6 7 7 7 7 6 6 6 7 7 7 8 8 9 10 10 10 10 11 11 12 14 15 16 16 16 17 18 19 21 20 22 20 22 20 23 21 19 19 19 19 19 19 19
11 12 12 13 15 14 14 12 12 11 12 12 11 12 11 11 12 13 12 13 13 14 14 14 13 13 13 13 12 11 10 10 10 10 9 8 8 7 6 6 6 6 5 6 6 6 6 7 7 7 7 7 7 7 7 7 8 9 9 11 12 14 14 16 16 16 18 18 19 20 19 21 21 29 32 31 27 26 20 17 20 18 19 18 19
13 15 16 16 17 17 16 15 10 12 13 12 12 13 13 14 14 13 13 12 13 14 14 14 13 12 12 12 12 10 11 10 10 10 9 8 8 7 6 6 6 6 6 5 6 6 6 7 7 7 6 6 7 6 9 15 14 11 12 12 13 14 15 15 15 17 17 16 18 16 19 28 31 31 33 34 34 35 35 28 21 17 18 17 16
16 16 16 16 18 18 16 14 13 12 13 13 12 12 12 12 12 13 13 13 13 13 13 13 13 12 12 12 11 11 10 10 10 8 7 8 7 6 5 5 5 5 6 5 6 7 6 6 6 6 6 6 7 7 13 15 16 19 15 14 13 14 14 14 16 15 16 18 15 19 16 21 24 26 25 30 31 33 34 35 36 37 30 23 16
19 18 15 12 15 16 16 16 15 14 12 11 11 12 13 14 13 14 13 13 13 13 14 13 13 13 13 13 11 11 10 10 9 7 7 6 5 5 4 5 5 5 5 5 6 6 6 6 5 6 7 7 7 10 15 16 18 19 18 14 13 13 13 14 14 15 16 15 19 16 18 15 17 20 20 21 26 31 33 34 35 35 34 36 34
17 16 14 12 12 14 16 16 15 13 12 12 12 12 14 14 13 13 12 13 14 14 13 13 12 13 13 12 12 11 10 9 8 8 7 6 6 5 5 5 5 5 5 5 6 5 6 5 5 6 7 7 8 12 15 17 19 20 20 18 13 13 14 14 15 17 16 18 14 19 16 17 17 24 21 21 22 23 28 34 34 35 34 35 34
16 14 13 12 10 10 12 15 15 15 16 13 13 13 11 11 12 12 13 13 13 13 12 13 12 12 12 12 11 10 9 9 8 8 7 7 6 6 6 5 5 5 5 5 5 5 5 6 6 6 6 7 9 11 16 18 19 21 20 19 13 15 14 15 17 17 16 16 19 19 20 20 18 19 20 19 21 24 23 21 20 19 19 24 29
16 15 14 12 11 8 10 10 11 11 10 11 10 10 11 10 11 12 11 12 11 11 9 11 11 11 11 9 10 9 9 9 8 8 7 7 7 6 6 5 5 5 5 5 4 5 5 5 5 5 6 7 8 14 16 19 19 20 21 19 13 13 13 16 15 17 18 19 20 21 20 18 21 22 16 23 21 23 21 18 18 19 19 20 22
15 13 11 9 8 9 10 11 9 10 10 8 10 10 10 10 10 12 11 10 10 8 9 9 9 10 10 11 10 10 9 9 9 8 8 7 7 7 6 6 5 4 4 4 3 4 5 5 6 6 6 7 9 15 17 18 19 20 22 14 12 13 15 14 16 18 18 17 19 18 17 21 23 19 26 32 30 24 20 20 20 19 20 21 21
14 11 10 7 7 8 9 9 11 13 13 15 12 13 14 11 11 9 11 10 10 10 8 11 10 11 11 11 11 11 10 10 10 9 9 8 8 7 6 5 5 5 4 4 4 5 5 5 5 5 6 7 8 12 16 18 19 20 18 12 13 13 12 15 17 17 17 18 16 15 20 21 21 23 27 33 33 31 21 21 20 21 20 19 20
13 10 6 4 5 5 7 12 14 15 16 13 15 17 16 15 15 15 16 15 15 14 9 9 10 10 10 10 10 11 11 11 10 10 9 8 7 6 6 5 5 5 4 4 4 4 5 5 5 6 6 7 8 12 17 17 18 19 18 13 13 12 16 16 16 16 15 15 17 29 27 22 24 23 30 33 33 27 21 20 20 21 22 20 19
10 10 7 7 7 9 9 10 13 15 14 15 16 17 16 15 16 16 16 16 16 17 13 10 10 10 10 10 10 10 10 11 10 9 9 9 8 7 6 5 4 4 4 3 4 4 4 4 4 5 9 9 8 10 15 16 18 19 16 12 12 12 14 14 15 16 15 14 17 19 28 27 25 27 34 32 33 28 21 19 20 21 21 21 19
8 7 7 6 7 8 9 11 15 18 15 16 15 15 17 19 19 18 17 19 16 10 9 9 10 10 8 8 8 9 9 9 10 9 8 7 6 6 6 5 5 4 4 3 4 3 4 4 4 5 6 6 8 8 10 16 17 18 19 13 11 12 13 16 16 15 15 19 18 14 20 28 30 32 33 34 33 35 26 22 20 19 20 24 18
5 3 3 4 8 12 14 17 14 12 14 14 15 16 17 18 20 17 23 13 10 10 10 10 9 9 9 9 8 8 9 8 8 8 7 6 6 6 6 6 5 4 4 3 3 3 4 5 4 4 5 6 6 8 10 16 17 18 19 18 11 12 14 15 16 16 17 18 16 18 18 25 31 33 34 35 37 37 34 24 20 18 20 24 24
1 2 6 6 7 9 8 6 8 14 14 15 16 19 17 19 19 19 13 11 14 12 10 9 10 10 9 9 9 8 8 8 8 7 8 6 5 5 5 5 5 5 5 5 4 3 2 3 4 5 5 5 6 11 10 14 17 18 19 22 13 13 16 15 16 16 18 17 19 19 18 24 34 35 36 36 36 34 35 22 21 30 36 37 28
7 4 3 4 6 8 9 8 7 9 12 14 18 18 19 19 23 16 11 12 11 11 11 10 10 10 9 10 9 10 8 6 7 6 7 7 6 5 5 5 5 4 5 5 4 3 2 2 3 3 3 4 6 8 13 12 16 18 20 20 22 19 24 16 15 16 18 18 18 19 20 31 35 36 34 34 33 35 29 20 31 33 35 36 30
3 2 3 4 6 5 6 7 7 9 14 17 19 18 18 22 19 10 11 13 12 9 10 10 9 9 10 8 9 9 8 7 7 7 6 7 6 6 6 6 6 5 5 4 2 1 1 2 2 3 3 4 6 7 11 15 15 19 20 21 22 24 24 16 16 14 15 17 17 18 23 36 34 32 33 33 32 31 23 31 33 35 35 27 13
12 12 10 9 13 13 8 7 8 11 13 17 16 19 19 24 11 14 12 17 16 17 13 12 10 10 9 9 8 7 8 7 7 7 7 6 6 7 6 6 5 5 4 3 2 1 1 1 3 3 4 5 6 7 8 12 18 19 20 21 23 24 24 25 16 13 16 16 24 33 33 30 30 31 32 30 26 26 30 31 33 33 31 12 8
6 5 9 11 8 8 10 12 9 10 14 16 16 16 22 18 13 14 10 12 15 15 13 12 10 9 10 10 11 9 8 7 7 6 5 6 6 7 6 6 5 4 4 3 2 2 1 1 2 3 5 6 7 7 8 9 12 13 16 20 23 22 24 24 22 18 24 28 28 28 30 29 26 24 20 18 17 19 28 29 28 26 15 15 9
11 13 10 9 12 12 14 15 16 12 11 13 16 13 10 15 20 13 12 16 22 15 13 11 11 11 10 9 10 8 8 7 7 5 5 5 5 5 5 5 5 5 4 3 3 2 1 1 2 3 5 6 6 7 8 10 8 9 11 12 15 15 20 19 14 12 15 14 19 19 19 24 22 27 27 25 23 23 18 17 14 14 14 13 15
13 12 13 13 14 17 17 16 16 12 8 12 17 14 14 17 16 17 21 22 19 13 13 11 12 10 10 9 8 11 10 7 7 6 6 5 5 5 5 5 6 5 5 4 4 2 1 0 1 3 4 5 6 7 8 8 10 11 11 11 10 11 12 11 12 13 14 15 14 17 17 14 15 14 15 12 13 13 13 14 13 13 13 14 16
9 9 12 15 16 16 16 17 17 12 13 15 18 14 16 19 14 21 24 24 13 12 11 12 10 9 9 8 8 9 8 8 7 6 5 5 5 5 4 3 2 2 3 4 3 2 2 1 1 2 3 5 6 7 7 13 13 18 15 14 12 12 12 11 16 23 15 11 10 11 11 13 13 15 15 14 14 15 15 14 15 13 13 13 12
10 9 12 15 14 16 16 17 16 13 16 18 18 15 15 13 19 21 23 24 15 13 12 11 10 10 10 9 8 8 7 8 8 7 6 3 3 6 4 5 5 8 6 3 3 2 1 1 0 2 2 4 5 6 14 18 18 19 20 21 20 21 20 17 21 24 17 10 11 12 12 13 14 14 15 15 15 16 17 18 16 18 14 13 13
8 9 12 15 16 15 13 14 15 14 18 18 17 16 18 19 16 14 17 21 15 13 10 10 10 9 10 10 9 8 8 8 8 8 7 7 6 5 8 7 6 5 4 4 4 3 4 2 1 1 3 7 10 13 15 16 17 18 19 20 20 20 20 20 22 15 11 9 11 12 13 13 14 14 14 15 15 13 14 15 17 15 13 14 14
Wind_Direction
185 190 183 186 186 186 183 183 182 181 185 182 179 176 176 171 170 175 175 175 173 172 175 177 176 177 179 184 187 182 189 184 186 191 192 191 174 180 185 196 196 197 214 231 241 254 263 272 275 278 275 276 277 276 283 291 294 291 296 297 299 297 297 299 306 313 305 299 297 292 287 271 260 259 258 255 257 270 274 275 274 272 274 279 284
173 179 184 180 181 179 179 181 180 180 187 184 183 180 179 175 175 172 173 177 181 179 175 184 183 184 179 183 183 178 177 183 187 188 189 185 176 184 194 199 194 204 212 224 242 249 264 270 275 275 281 276 278 281 281 277 277 280 292 300 294 298 296 303 305 315 311 325 323 315 290 279 273 264 252 255 252 263 275 284 287 282 285 288 288
178 189 182 181 177 175 177 181 185 186 184 187 185 179 180 178 178 174 177 177 182 181 178 183 181 181 181 176 181 166 170 177 184 172 173 181 186 194 197 198 195 203 212 223 237 245 254 265 268 275 278 282 280 279 280 281 282 290 294 295 304 295 288 291 305 326 309 315 297 292 321 329 329 220 229 6 348 305 300 290 287 287 285 283 284
189 192 190 183 176 177 179 183 185 184 186 188 187 184 181 183 179 177 177 178 179 181 180 177 174 161 155 145 150 157 166 160 161 164 179 189 200 195 197 196 198 207 208 217 227 233 242 256 269 273 276 278 278 280 281 281 281 283 290 292 293 295 300 303 313 308 302 322 327 342 305 305 311 319 332 285 254 272 267 271 281 289 293 285 281
193 197 191 184 182 184 185 183 180 186 189 188 186 185 184 184 179 179 176 178 179 176 175 168 154 147 140 125 127 130 101 160 181 203 202 202 205 201 202 192 198 204 214 223 231 240 245 250 260 271 277 278 277 274 273 275 284 285 284 284 283 293 298 298 299 294 279 260 281 316 322 303 290 311 339 305 138 318 300 288 283 278 276 280 283
200 201 192 189 186 184 185 184 187 190 192 190 187 185 182 180 178 179 176 178 178 174 171 165 164 166 164 168 175 185 195 193 201 198 189 192 198 192 189 188 192 202 213 221 226 235 240 244 251 261 266 270 267 269 277 282 274 275 276 280 283 279 284 295 292 288 270 249 237 232 231 274 308 312 326 305 315 267 250 275 275 287 286 290 283
207 207 191 185 186 183 187 190 191 191 192 184 183 185 184 180 179 180 178 178 176 171 171 167 170 177 180 184 187 188 194 199 197 194 186 176 172 173 175 188 199 207 212 216 225 227 236 243 249 255 262 265 268 269 269 270 273 271 273 266 272 281 278 279 283 292 292 261 244 238 244 254 265 290 300 316 312 315 282 229 278 269 278 275 274
190 200 195 188 184 186 191 190 189 191 183 181 181 183 184 181 177 180 177 177 173 169 173 175 174 179 181 187 192 197 197 190 178 166 155 154 160 175 188 200 203 207 213 218 223 226 232 240 244 250 254 258 260 262 265 267 271 269 260 263 264 259 263 268 281 283 284 290 276 271 266 260 256 254 259 263 284 300 306 301 225 258 278 269 271
184 188 193 189 189 191 188 187 188 183 183 182 181 180 179 179 178 179 181 175 172 170 172 177 178 179 180 183 189 192 184 174 152 155 159 167 179 188 202 209 208 210 216 219 218 224 229 236 243 247 251 255 255 259 260 262 264 267 265 263 261 266 265 269 273 274 276 278 289 276 272 266 266 261 258 254 258 281 282 289 299 297 266 260 266
191 195 190 188 189 188 188 180 181 185 182 179 174 175 177 177 181 181 184 176 171 172 173 177 179 178 181 185 183 181 177 175 172 167 176 179 189 198 203 210 211 213 211 212 216 219 224 229 235 243 250 252 254 256 263 264 263 260 257 258 262 264 264 264 262 267 266 268 264 274 271 273 267 263 252 251 256 246 261 284 289 299 301 286 249
183 192 189 184 183 181 179 184 181 177 178 176 175 176 176 180 184 185 184 175 170 174 175 177 179 180 182 182 182 180 174 174 173 179 179 181 195 200 203 210 209 212 207 209 210 214 219 225 236 247 252 257 258 259 258 259 261 264 266 264 261 260 261 262 264 264 263 263 262 259 260 258 263 263 265 258 260 262 268 269 275 278 286 294 290
180 183 181 177 171 179 178 184 181 178 174 178 176 177 179 183 184 185 184 180 175 175 176 177 178 181 182 181 182 181 174 174 182 181 184 190 195 200 200 208 216 215 214 219 217 215 218 228 237 248 253 253 254 254 258 264 267 268 267 265 262 258 258 259 261 262 261 262 261 258 258 259 257 257 260 261 256 259 261 268 274 285 283 273 288
174 177 176 176 177 179 182 184 178 181 181 181 179 179 179 184 185 185 188 182 177 175 177 177 177 180 180 179 179 179 180 178 182 182 184 189 192 199 201 211 214 218 218 222 220 213 220 234 243 247 250 253 259 263 267 267 267 265 263 263 265 265 262 260 262 263 265 265 267 264 264 261 258 259 261 260 258 262 261 268 267 272 275 286 290
177 178 183 181 183 182 183 183 185 184 183 183 182 181 181 184 187 190 189 182 177 177 177 178 179 179 179 177 178 177 181 179 180 181 184 187 188 196 203 212 218 221 226 227 227 224 230 243 255 257 259 263 263 264 264 266 266 265 264 263 264 265 267 267 266 266 265 263 264 265 262 260 262 261 261 260 260 260 260 261 274 271 270 279 286
183 183 189 189 186 183 181 185 187 187 184 183 183 182 180 185 189 190 187 185 179 178 177 178 177 177 176 175 175 174 177 176 181 179 181 185 190 192 201 206 214 222 228 230 227 230 245 256 258 262 265 266 269 269 267 267 266 264 263 265 268 269 270 269 269 269 267 264 261 261 265 263 262 261 258 257 259 256 259 265 270 278 279 272 279
187 190 192 194 188 184 184 185 190 187 184 183 185 182 184 190 190 190 189 182 179 176 178 176 176 173 173 172 174 173 171 173 174 176 181 182 187 191 202 205 214 225 232 237 238 241 248 253 258 259 263 262 263 264 266 266 266 267 267 268 271 270 271 269 269 269 267 267 266 264 263 262 260 259 258 259 257 258 259 260 265 267 274 280 277
185 192 190 188 184 191 191 188 189 186 183 187 188 185 188 184 185 188 188 182 180 177 175 174 173 170 173 171 172 170 170 173 174 174 175 174 183 193 199 207 215 223 229 230 239 241 244 248 255 258 260 261 260 262 263 264 267 268 268 271 272 274 273 272 271 270 270 271 269 266 264 266 264 262 261 257 257 257 258 260 257 262 266 271 278
183 187 188 188 190 195 193 193 194 193 188 187 188 187 186 187 185 184 184 182 179 174 173 173 171 170 169 171 171 170 169 172 168 169 171 173 182 191 199 207 212 216 218 222 228 239 246 247 250 255 257 258 260 264 265 267 269 271 271 272 273 277 275 273 271 270 271 271 270 269 266 267 267 266 265 263 259 258 265 272 273 274 268 264 269
182 196 193 193 196 196 197 197 197 196 191 189 185 182 182 184 185 186 186 180 172 170 170 168 168 164 165 166 167 166 165 166 165 165 170 180 188 194 200 205 208 210 213 220 227 236 238 244 246 253 257 259 261 262 266 270 271 272 274 276 274 273 272 273 272 269 272 271 271 271 269 269 269 269 268 267 270 273 270 268 268 265 263 262 264
192 190 193 195 198 201 198 192 193 194 189 186 181 178 182 183 180 186 181 170 166 168 169 167 166 156 156 158 164 164 163 164 167 167 180 185 191 195 199 206 209 209 216 219 227 234 241 244 247 252 257 260 261 262 263 266 270 269 272 274 273 273 271 270 271 269 271 270 270 269 268 268 271 273 272 273 273 271 270 266 264 263 262 259 260
191 194 192 197 198 195 191 194 190 187 186 180 184 180 180 178 180 182 178 169 166 167 163 164 159 157 156 163 163 163 163 164 166 173 179 186 190 194 200 203 203 210 210 220 225 232 236 239 246 252 253 258 261 265 265 266 266 267 268 269 272 270 268 267 268 269 266 267 267 267 267 267 269 267 269 272 270 268 265 264 262 261 259 258 256
205 204 202 186 182 176 180 178 178 179 185 184 179 170 176 182 180 181 172 170 165 166 165 162 159 158 161 161 161 161 162 165 167 173 181 184 189 194 194 194 204 208 210 221 226 230 234 240 246 249 252 255 261 260 263 261 262 266 267 265 265 266 266 267 268 268 268 265 265 267 267 266 263 269 275 274 271 268 265 265 261 259 258 258 255
206 203 196 189 175 178 176 176 181 186 185 183 181 182 183 181 176 182 175 174 166 163 158 156 155 158 161 159 158 162 164 167 170 175 183 186 188 190 188 194 201 205 210 216 222 226 230 236 243 247 251 254 255 259 260 260 263 265 268 267 265 266 266 267 266 267 268 269 269 268 272 276 282 281 276 275 272 266 266 264 263 260 259 258 256
223 204 185 176 172 163 169 180 186 191 189 190 185 183 182 181 180 177 179 170 162 158 156 153 155 158 160 158 162 163 165 170 173 177 182 185 184 184 188 194 199 206 210 214 218 226 232 236 242 246 248 252 254 257 259 260 263 263 267 267 267 267 267 267 267 268 269 269 268 270 272 279 279 277 276 273 269 268 266 266 264 262 259 261 256
211 207 204 174 165 179 188 191 188 186 187 187 187 186 184 182 180 180 179 167 157 154 155 156 157 157 161 162 164 164 168 171 174 178 182 181 182 181 185 193 196 206 210 213 221 224 232 236 240 245 251 256 259 262 264 264 264 263 264 267 268 267 266 267 266 266 268 269 270 271 276 279 279 273 271 270 268 265 265 265 264 262 262 260 261
210 217 198 191 200 192 186 194 189 186 186 187 186 185 185 182 184 175 170 163 158 157 158 158 159 159 163 165 165 166 169 171 174 175 176 176 178 182 185 189 197 206 209 217 223 230 230 239 245 250 256 262 264 264 265 265 266 266 265 267 269 271 272 271 271 272 271 271 276 282 283 282 274 268 269 263 265 263 263 261 262 261 260 260 260
214 211 209 199 185 200 211 194 190 185 184 187 184 182 184 181 178 174 169 161 159 159 160 160 161 161 161 165 165 166 166 169 171 171 168 172 177 180 184 189 196 201 209 219 225 228 234 238 247 252 257 261 263 265 264 264 265 266 269 271 273 274 273 273 274 278 281 279 278 274 272 268 267 261 257 257 260 259 256 258 255 259 257 259 259
220 215 208 209 214 216 207 200 184 190 186 186 182 183 181 180 177 173 167 161 158 160 162 161 160 162 162 162 162 161 161 164 163 163 165 169 171 176 182 188 191 204 212 220 224 229 237 239 246 250 257 260 263 264 265 266 268 270 274 275 275 278 281 279 278 273 270 270 266 264 261 260 259 256 260 256 261 258 254 254 252 255 253 256 255
221 219 219 219 223 222 213 198 195 181 183 180 175 178 176 177 173 171 165 161 157 158 160 159 161 162 161 158 154 155 156 154 157 161 164 169 171 174 177 185 194 206 217 221 228 233 238 244 248 252 257 260 263 263 264 265 269 274 275 279 280 280 280 281 279 275 274 270 267 264 262 260 256 256 255 258 257 258 254 258 253 252 253 256 255
230 233 231 229 228 226 219 206 173 181 182 176 176 178 178 174 174 168 163 161 157 162 160 162 162 160 153 152 149 148 152 153 158 164 168 167 170 170 175 187 200 212 219 224 231 239 239 245 251 256 261 265 265 263 257 260 267 274 282 283 284 283 283 279 278 279 276 274 275 270 273 271 272 274 269 270 264 262 263 255 252 248 249 246 247
264 257 246 235 229 228 226 212 195 183 181 180 175 173 171 172 171 169 166 164 159 160 161 160 159 152 150 146 145 148 152 157 161 160 159 162 163 165 176 190 202 216 225 230 234 237 239 242 250 259 269 266 266 265 268 275 279 284 287 289 288 286 282 281 281 280 284 284 283 284 280 284 284 282 281 279 277 275 271 273 266 262 254 247 246
276 274 266 240 228 226 224 218 206 193 177 167 167 171 172 178 172 169 162 157 160 160 159 159 154 148 148 146 148 148 152 155 154 158 153 152 154 163 177 191 207 218 227 231 237 240 245 252 254 262 264 266 269 270 278 282 288 290 291 291 290 288 287 285 284 286 287 289 290 289 289 285 284 284 284 284 281 279 278 274 273 271 269 263 257
274 272 268 256 235 223 221 221 210 192 183 180 165 165 179 175 165 163 150 157 162 159 155 152 148 148 148 149 147 149 150 151 153 149 147 146 155 168 183 196 211 218 227 231 237 243 247 253 261 264 268 272 274 278 283 288 294 295 296 297 292 290 289 288 291 290 288 288 288 292 288 289 288 285 284 282 280 279 276 276 275 276 274 273 272
271 265 261 259 245 222 218 214 207 197 188 174 170 171 168 160 153 148 152 159 156 157 153 152 146 147 148 147 145 144 146 148 144 144 147 152 165 179 186 196 202 213 224 234 238 248 252 254 257 264 271 274 275 280 288 295 299 301 302 302 296 296 293 290 290 290 289 289 289 292 293 288 286 286 283 278 281 279 279 277 274 271 269 269 270
272 267 262 262 257 222 209 202 200 182 156 151 159 150 147 142 144 146 151 150 151 144 139 143 142 145 143 141 142 142 140 142 142 146 150 159 169 177 187 196 202 210 217 225 234 239 248 250 258 263 268 275 276 283 293 300 303 304 305 307 302 298 294 290 288 291 290 288 289 289 284 285 290 286 279 283 280 282 277 274 270 267 264 268 268
267 268 264 255 240 207 195 196 173 152 157 147 157 147 140 144 141 149 146 146 141 135 141 141 141 146 145 146 141 143 141 144 146 149 154 164 173 183 187 194 199 209 217 229 241 246 251 249 252 262 267 274 280 290 298 302 304 307 310 310 303 299 295 291 294 292 288 289 289 285 286 289 287 286 289 287 287 283 279 273 268 265 265 265 265
266 261 260 238 202 195 192 163 159 169 165 175 160 149 131 134 148 149 134 131 135 141 149 155 156 150 151 150 148 145 145 147 149 153 162 170 172 181 187 187 193 206 210 219 229 243 245 249 253 254 264 275 282 291 298 303 306 310 313 310 308 302 296 297 296 295 292 292 289 288 293 292 294 295 294 293 291 290 284 280 275 271 268 266 264
261 260 242 194 185 174 163 166 168 177 178 161 155 159 156 154 155 141 145 156 158 161 155 154 154 152 147 145 147 145 147 150 156 161 163 164 167 174 178 186 188 200 211 212 229 243 247 246 250 259 266 277 282 287 295 302 308 309 314 312 309 304 302 298 295 294 295 291 293 299 298 298 297 294 295 294 293 292 286 282 279 275 273 267 264
246 242 223 193 179 173 170 168 168 178 178 164 159 157 159 165 160 159 161 162 172 161 160 158 149 142 144 144 143 148 146 151 152 157 157 161 167 170 168 172 192 204 213 216 227 240 243 256 256 261 271 279 279 284 294 300 306 311 315 312 310 308 300 297 300 300 299 298 302 299 300 300 297 296 298 298 297 296 290 285 283 281 278 275 271
244 232 219 178 150 132 164 174 185 191 166 159 157 162 168 166 161 144 158 175 178 159 133 122 131 135 133 132 141 140 143 146 147 146 149 157 157 159 165 174 189 198 205 215 223 235 255 266 267 261 262 271 282 285 290 300 307 310 314 312 309 304 305 307 307 306 306 308 304 299 302 301 302 302 300 299 297 293 288 280 274 271 269 269 268
268 255 95 156 177 182 188 194 194 163 154 159 162 163 174 173 159 159 187 174 134 116 127 133 128 130 131 134 136 140 137 134 137 139 144 151 159 159 162 174 187 204 196 213 225 241 255 260 267 273 273 277 275 288 294 304 307 312 315 318 309 308 310 308 309 308 309 309 307 307 306 304 303 303 302 301 300 298 297 291 280 269 263 265 266
30 146 174 191 201 207 210 191 164 162 163 165 165 175 166 160 159 187 176 126 127 132 129 131 138 137 133 130 128 128 125 130 132 139 145 152 155 151 162 176 194 184 186 210 222 231 245 269 277 277 272 280 295 301 305 302 307 311 315 317 315 311 313 313 311 309 309 309 308 306 303 304 305 305 305 305 306 304 303 301 290 287 283 279 272
219 226 222 181 209 214 209 187 157 166 165 165 169 175 177 167 184 179 128 135 131 131 131 130 126 126 127 126 128 130 129 129 138 145 147 145 146 154 181 192 187 175 191 205 214 212 244 275 279 284 292 303 306 306 305 307 310 314 315 317 318 318 319 317 312 308 309 308 306 305 303 305 308 310 311 311 311 312 311 302 300 301 297 282 271
165 137 168 189 219 223 208 171 162 166 174 172 174 177 179 180 186 121 127 112 122 119 118 118 119 125 123 123 124 129 128 137 144 149 148 145 160 169 187 193 184 185 184 195 183 177 251 262 296 307 314 316 316 308 307 309 312 316 319 321 322 322 321 319 314 308 307 306 305 305 308 311 312 313 312 313 314 314 310 310 313 315 312 298 277
194 200 187 179 202 204 188 178 179 183 185 185 182 179 176 181 157 130 138 138 130 124 123 124 126 128 129 128 129 131 136 138 149 149 145 158 172 179 188 184 175 186 183 176 166 173 229 271 295 314 318 320 313 306 302 306 314 316 323 326 326 325 324 323 318 311 309 306 311 314 314 315 314 313 314 315 314 312 314 316 319 324 327 297 278
202 189 183 195 191 191 188 193 174 175 192 194 193 180 181 159 122 124 130 125 127 128 127 128 130 134 135 135 133 133 137 143 148 150 160 171 174 187 189 170 172 177 175 168 157 183 212 269 299 316 319 315 309 307 307 301 298 309 327 329 328 329 326 323 322 314 312 317 318 316 314 315 314 313 316 318 316 317 318 319 323 329 333 321 285
201 212 179 173 192 194 199 195 194 179 173 178 189 197 139 122 146 131 132 130 130 133 133 138 137 133 134 141 140 143 145 148 152 150 172 183 183 197 179 162 169 171 170 163 168 174 195 265 317 322 319 313 308 305 309 302 302 325 330 329 331 329 327 326 324 313 322 325 319 319 320 321 320 318 316 313 315 317 320 323 325 327 325 325 327
215 213 187 195 194 203 202 194 193 177 175 169 188 182 164 137 127 139 125 131 134 146 142 140 137 134 141 149 143 144 144 142 154 160 167 178 194 200 177 170 174 175 166 164 158 169 179 237 319 325 310 311 308 310 312 314 330 333 332 332 329 327 329 331 326 326 336 325 318 321 322 325 324 322 320 317 317 321 321 321 320 320 322 324 321
222 206 186 195 202 206 206 196 195 165 160 161 182 174 159 146 145 138 143 136 143 133 126 129 133 131 138 148 145 151 150 144 150 163 178 177 185 187 172 141 149 156 164 153 160 172 161 163 333 299 311 306 311 311 306 326 333 336 337 336 335 337 335 335 334 342 338 322 321 330 332 332 334 330 328 326 330 330 329 328 325 325 328 326 326
220 199 194 208 209 206 202 200 191 145 164 176 179 169 150 140 136 142 141 137 136 135 133 143 144 144 147 144 141 148 146 143 152 161 159 157 197 185 153 157 170 193 196 203 180 161 141 110 252 293 294 289 296 302 323 336 338 339 340 339 340 341 339 337 342 346 342 331 336 338 335 332 331 331 331 330 328 330 333 333 330 329 327 323 324
207 188 200 207 210 207 201 200 193 174 172 178 175 167 156 144 150 155 155 139 138 140 141 137 147 153 154 147 146 146 150 153 158 158 161 156 160 175 181 168 166 168 179 173 123 103 60 55 72 170 314 322 320 327 336 342 343 344 343 343 344 346 344 345 350 354 338 341 343 338 336 334 332 328 329 330 326 321 323 326 331 329 325 323 321